RW6A-13 Weather Reports


time (UTC)temp
C
wind
direction
speed
KPH
gust
KPH
rain 1hr
cm
rain 24hr
cm
rain mn
cm
humidity
%
barometer
mb
20260508141503 23 270 6.4 14.5 0.00 0.00 0.00 51 1011.2
20260508141002 23 270 6.4 17.7 0.00 0.00 0.00 50 1011.2
20260508140502 23 270 4.8 14.5 0.00 0.00 0.00 49 1011.2
20260508140001 23 315 4.8 20.9 0.00 0.00 0.00 49 1011.2
20260508135502 24 45 8.0 16.1 0.00 0.00 0.00 49 1011.2
20260508135002 24 0 6.4 12.9 0.00 0.00 0.00 50 1011.2
20260508134502 24 270 6.4 16.1 0.00 0.00 0.00 51 1011.2
20260508134002 24 0 6.4 17.7 0.00 0.00 0.00 50 1011.2
20260508133501 25 270 6.4 16.1 0.00 0.00 0.00 50 1011.2
20260508133002 25 270 6.4 17.7 0.00 0.00 0.00 50 1011.2
20260508132501 25 225 8.0 16.1 0.00 0.00 0.00 50 1011.2
20260508132001 25 270 3.2 19.3 0.00 0.00 0.00 49 1011.2
20260508131502 25 248 8.0 22.5 0.00 0.00 0.00 49 1011.2
20260508131001 25 225 4.8 16.1 0.00 0.00 0.00 49 1011.3
20260508130502 25 180 3.2 22.5 0.00 0.00 0.00 49 1011.3
20260508130002 25 225 8.0 17.7 0.00 0.00 0.00 50 1011.3
20260508125501 25 248 8.0 17.7 0.00 0.00 0.00 51 1011.3
20260508125001 25 248 6.4 16.1 0.00 0.00 0.00 51 1011.2
20260508124502 25 225 3.2 14.5 0.00 0.00 0.00 51 1011.4
20260508124001 25 315 3.2 17.7 0.00 0.00 0.00 49 1011.4
20260508123501 25 270 8.0 20.9 0.00 0.00 0.00 49 1011.4
20260508123001 25 293 8.0 17.7 0.00 0.00 0.00 52 1011.5
20260508122501 25 270 6.4 16.1 0.00 0.00 0.00 51 1011.5
20260508122001 25 270 9.7 20.9 0.00 0.00 0.00 51 1011.4
20260508121502 25 270 9.7 19.3 0.00 0.00 0.00 52 1011.5
20260508121001 25 315 8.0 22.5 0.00 0.00 0.00 51 1011.5
20260508120501 26 315 8.0 22.5 0.00 0.00 0.00 50 1011.5
20260508120000 26 270 8.0 20.9 0.00 0.00 0.00 51 1011.5
20260508115500 26 315 11.3 22.5 0.00 0.00 0.00 50 1011.6
20260508115001 26 270 6.4 17.7 0.00 0.00 0.00 51 1011.6
20260508114501 26 248 11.3 20.9 0.00 0.00 0.00 51 1011.8
20260508114001 26 225 9.7 17.7 0.00 0.00 0.00 52 1011.8
20260508113501 26 270 11.3 25.7 0.00 0.00 0.00 51 1011.9
20260508113000 26 225 8.0 19.3 0.00 0.00 0.00 52 1011.9
20260508112501 26 225 4.8 16.1 0.00 0.00 0.00 52 1012.0
20260508112000 26 45 6.4 17.7 0.00 0.00 0.00 51 1012.1
20260508111500 25 315 3.2 17.7 0.00 0.00 0.00 51 1012.1
20260508111001 25 0 4.8 19.3 0.00 0.00 0.00 52 1012.1
20260508110500 26 270 6.4 17.7 0.00 0.00 0.00 50 1012.2
20260508110001 26 293 8.0 20.9 0.00 0.00 0.00 51 1012.1
20260508105501 25 315 6.4 24.1 0.00 0.00 0.00 51 1012.1
20260508105000 26 225 4.8 20.9 0.00 0.00 0.00 50 1012.2
20260508104500 26 270 6.4 20.9 0.00 0.00 0.00 51 1012.1
20260508103959 26 270 8.0 22.5 0.00 0.00 0.00 50 1012.1
20260508103500 26 0 4.8 25.7 0.00 0.00 0.00 50 1012.0
20260508103000 26 225 8.0 17.7 0.00 0.00 0.00 49 1012.1
20260508102500 26 270 4.8 17.7 0.00 0.00 0.00 54 1012.2
20260508102000 26 270 6.4 17.7 0.00 0.00 0.00 50 1012.2
20260508101500 26 248 8.0 19.3 0.00 0.00 0.00 52 1012.2
20260508101000 26 315 8.0 19.3 0.00 0.00 0.00 52 1012.1
20260508100500 26 338 8.0 17.7 0.00 0.00 0.00 51 1012.2
20260508100000 26 270 11.3 17.7 0.00 0.00 0.00 51 1012.3
20260508095459 26 225 8.0 17.7 0.00 0.00 0.00 52 1012.2
20260508095000 26 315 8.0 17.7 0.00 0.00 0.00 52 1012.2
20260508094500 26 315 8.0 14.5 0.00 0.00 0.00 53 1012.3
20260508093959 26 315 8.0 17.7 0.00 0.00 0.00 53 1012.3
20260508093500 26 225 6.4 17.7 0.00 0.00 0.00 54 1012.4
20260508093000 26 315 8.0 20.9 0.00 0.00 0.00 54 1012.4
20260508092459 26 270 8.0 17.7 0.00 0.00 0.00 55 1012.4
20260508092044 26 270 8.0 20.9 0.00 0.00 0.00 55 1012.5
20260508091543 25 270 8.0 20.9 0.00 0.00 0.00 55 1012.5
20260508091043 26 270 8.0 19.3 0.00 0.00 0.00 56 1012.5
20260508090544 25 315 8.0 17.7 0.00 0.00 0.00 57 1012.6
20260508090043 25 270 8.0 16.1 0.00 0.00 0.00 58 1012.6
20260508085543 25 270 8.0 17.7 0.00 0.00 0.00 57 1012.6
20260508085043 25 180 8.0 17.7 0.00 0.00 0.00 60 1012.6
20260508084543 24 270 11.3 19.3 0.00 0.00 0.00 59 1012.7
20260508084043 24 270 3.2 20.9 0.00 0.00 0.00 60 1012.7
20260508083543 23 225 6.4 17.7 0.00 0.00 0.00 62 1012.8
20260508083044 24 248 8.0 20.9 0.00 0.00 0.00 59 1012.8
20260508082543 25 293 8.0 16.1 0.00 0.00 0.00 58 1012.8
20260508082042 25 0 6.4 19.3 0.00 0.00 0.00 58 1012.9
20260508081543 24 270 8.0 14.5 0.00 0.00 0.00 59 1012.9
20260508081043 24 270 6.4 16.1 0.00 0.00 0.00 60 1013.0
20260508080543 23 225 8.0 16.1 0.00 0.00 0.00 62 1012.9
20260508080043 23 248 3.2 12.9 0.00 0.00 0.00 61 1013.0
20260508075543 24 225 8.0 12.9 0.00 0.00 0.00 58 1013.1
20260508075043 25 270 4.8 12.9 0.00 0.00 0.00 59 1013.1
20260508074543 23 270 4.8 16.1 0.00 0.00 0.00 60 1013.1
20260508074043 23 225 3.2 17.7 0.00 0.00 0.00 60 1013.2
20260508073542 23 248 4.8 12.9 0.00 0.00 0.00 61 1013.2
20260508073043 23 315 6.4 12.9 0.00 0.00 0.00 61 1013.1
20260508072542 23 248 8.0 16.1 0.00 0.00 0.00 61 1013.2
20260508072042 23 225 3.2 14.5 0.00 0.00 0.00 62 1013.2
20260508071543 23 270 4.8 12.9 0.00 0.00 0.00 62 1013.3
20260508071042 22 225 3.2 12.9 0.00 0.00 0.00 62 1013.3
20260508070542 22 315 3.2 12.9 0.00 0.00 0.00 62 1013.3
20260508070043 22 248 4.8 12.9 0.00 0.00 0.00 64 1013.4
20260508065542 21 270 3.2 12.9 0.00 0.00 0.00 65 1013.4
20260508065042 21 270 6.4 14.5 0.00 0.00 0.00 65 1013.4
20260508064542 21 248 8.0 16.1 0.00 0.00 0.00 66 1013.3
20260508064042 21 270 8.0 16.1 0.00 0.00 0.00 66 1013.3
20260508063542 21 270 8.0 20.9 0.00 0.00 0.00 65 1013.3
20260508063042 20 270 8.0 14.5 0.00 0.00 0.00 66 1013.4
20260508062542 20 270 8.0 14.5 0.00 0.00 0.00 67 1013.3
20260508062041 20 203 3.2 14.5 0.00 0.00 0.00 69 1013.4
20260508061542 20 225 4.8 17.7 0.00 0.00 0.00 69 1013.3
20260508061042 19 225 8.0 16.1 0.00 0.00 0.00 70 1013.5
20260508060542 18 225 11.3 20.9 0.00 0.00 0.00 71 1013.5
20260508060042 18 270 8.0 12.9 0.00 0.00 0.00 73 1013.5
20260508055541 18 0 3.2 19.3 0.00 0.00 0.00 73 1013.7
20260508055042 17 270 4.8 12.9 0.00 0.00 0.00 76 1013.7
20260508054542 16 0 6.4 14.5 0.00 0.00 0.00 79 1013.8
20260508054041 16 315 3.2 14.5 0.00 0.00 0.00 79 1013.8
20260508053542 16 225 8.0 17.7 0.00 0.00 0.00 79 1013.6
20260508053041 16 270 8.0 16.1 0.00 0.00 0.00 81 1013.8
20260508052542 15 248 8.0 17.7 0.00 0.00 0.00 81 1013.7
20260508052041 15 248 8.0 17.7 0.00 0.00 0.00 80 1013.9
20260508051542 15 270 8.0 17.7 0.00 0.00 0.00 80 1014.0
20260508051042 15 270 8.0 12.9 0.00 0.00 0.00 79 1014.0
20260508050540 15 315 4.8 12.9 0.00 0.00 0.00 82 1013.9
20260508050040 15 270 8.0 16.1 0.00 0.00 0.00 82 1013.8
20260508045540 15 315 4.8 16.1 0.00 0.00 0.00 82 1014.0
20260508045040 14 293 8.0 12.9 0.00 0.00 0.00 84 1014.2
20260508044540 13 225 3.2 12.9 0.00 0.00 0.00 86 1014.2
20260508044039 13 225 4.8 12.9 0.00 0.00 0.00 86 1014.3
20260508043540 13 225 3.2 12.9 0.00 0.00 0.00 86 1014.2
20260508043040 13 270 6.4 16.1 0.00 0.00 0.00 86 1014.2
20260508042540 13 270 6.4 11.3 0.00 0.00 0.00 86 1014.3
20260508042040 13 225 3.2 8.0 0.00 0.00 0.00 86 1014.2
20260508041539 12 270 4.8 12.9 0.00 0.00 0.00 86 1014.2
20260508041040 12 225 8.0 12.9 0.00 0.00 0.00 87 1014.1
20260508040539 12 270 6.4 14.5 0.00 0.00 0.00 88 1014.2
20260508040039 12 315 3.2 12.9 0.00 0.00 0.00 89 1014.1
20260508035540 12 270 4.8 11.3 0.00 0.00 0.00 90 1014.0
20260508035039 12 225 3.2 12.9 0.00 0.00 0.00 90 1014.0
20260508034540 12 225 4.8 11.3 0.00 0.00 0.00 91 1014.1
20260508034039 12 270 3.2 11.3 0.00 0.00 0.00 90 1014.0
20260508033540 12 270 3.2 8.0 0.00 0.00 0.00 90 1014.1
20260508033040 12 270 1.6 9.7 0.00 0.00 0.00 90 1014.1
20260508032538 12 225 3.2 12.9 0.00 0.00 0.00 89 1014.0
20260508032038 12 270 6.4 12.9 0.00 0.00 0.00 89 1013.9
20260508031538 12 225 8.0 12.9 0.00 0.00 0.00 89 1014.0
20260508031038 12 225 3.2 12.9 0.00 0.00 0.00 89 1014.0
20260508030538 12 270 6.4 12.9 0.00 0.00 0.00 89 1014.0
20260508030038 12 270 3.2 11.3 0.00 0.00 0.00 89 1014.0
20260508025538 11 225 6.4 12.9 0.00 0.00 0.00 89 1014.0
20260508025037 11 225 3.2 8.0 0.00 0.00 0.00 89 1014.0
20260508024538 11 0 3.2 11.3 0.00 0.00 0.00 89 1014.0
20260508024038 11 248 1.6 11.3 0.00 0.00 0.00 89 1013.9
20260508023538 11 225 8.0 12.9 0.00 0.00 0.00 89 1013.7
20260508023038 11 270 6.4 14.5 0.00 0.00 0.00 89 1013.8
20260508022538 11 225 4.8 12.9 0.00 0.00 0.00 90 1013.9
20260508022038 11 45 3.2 8.0 0.00 0.00 0.00 90 1014.0
20260508021538 11 270 3.2 12.9 0.00 0.00 0.00 91 1013.9
20260508021038 11 270 3.2 9.7 0.00 0.00 0.00 91 1014.0
20260508020537 11 225 3.2 9.7 0.00 0.00 0.00 91 1014.0
20260508020038 11 0 1.6 6.4 0.00 0.00 0.00 91 1014.0
20260508015538 11 248 1.6 6.4 0.00 0.00 0.00 91 1014.0
20260508015037 11 225 0.0 3.2 0.00 0.00 0.00 91 1014.0
20260508014538 11 225 0.0 8.0 0.00 0.00 0.00 92 1013.9
20260508014037 11 225 3.2 8.0 0.00 0.00 0.00 92 1013.9
20260508013538 11 225 0.0 8.0 0.00 0.00 0.00 93 1013.9
20260508013037 11 293 1.6 8.0 0.00 0.00 0.00 93 1014.0
20260508012537 11 225 0.0 3.2 0.00 0.00 0.00 93 1014.1
20260508012037 11 225 0.0 4.8 0.00 0.00 0.00 94 1014.2
20260508011537 11 225 0.0 8.0 0.00 0.00 0.00 94 1014.1
20260508011037 11 90 0.0 6.4 0.00 0.00 0.00 94 1014.1
20260508010537 11 248 0.0 4.8 0.00 0.00 0.00 94 1014.2
20260508010038 11 180 1.6 8.0 0.00 0.00 0.00 93 1014.2
20260508005537 11 180 3.2 8.0 0.00 0.00 0.00 93 1014.3
20260508005037 11 180 0.0 3.2 0.00 0.00 0.00 93 1014.2
20260508004537 12 270 0.0 3.2 0.00 0.00 0.00 93 1014.2
20260508004037 12 225 0.0 3.2 0.00 0.00 0.00 92 1014.2
20260508003538 12 270 0.0 4.8 0.00 0.00 0.00 92 1014.3
20260508003037 12 225 0.0 3.2 0.00 0.00 0.00 92 1014.3
20260508002536 12 270 0.0 3.2 0.00 0.00 0.00 92 1014.3
20260508002037 12 248 1.6 4.8 0.00 0.00 0.00 92 1014.4
20260508001537 12 270 0.0 3.2 0.00 0.00 0.00 92 1014.4
20260508001037 12 225 0.0 3.2 0.00 0.00 0.00 92 1014.4
20260508000537 12 315 0.0 3.2 0.00 0.00 0.00 92 1014.5
20260508000036 12 315 0.0 3.2 0.00 0.00 0.00 92 1014.4
20260507235537 12 45 0.0 0.0 0.00 0.00 0.00 92 1014.4
20260507235036 12 315 0.0 4.8 0.00 0.00 0.00 92 1014.3
20260507234536 12 270 3.2 8.0 0.00 0.00 0.00 91 1014.0
20260507234037 12 270 3.2 8.0 0.00 0.00 0.00 91 1013.8
20260507233536 12 270 3.2 8.0 0.00 0.00 0.00 91 1013.7
20260507233037 12 0 1.6 11.3 0.00 0.00 0.00 91 1013.8
20260507232536 12 270 3.2 8.0 0.00 0.00 0.00 91 1013.8
20260507232036 12 225 3.2 11.3 0.00 0.00 0.00 91 1013.8
20260507231536 12 225 1.6 8.0 0.00 0.00 0.00 91 1013.7
20260507231036 12 270 4.8 11.3 0.00 0.00 0.00 91 1013.7
20260507230536 12 225 3.2 8.0 0.00 0.00 0.00 91 1013.6
20260507225536 12 270 3.2 11.3 0.00 0.00 0.00 91 1013.5
20260507225035 12 203 1.6 6.4 0.00 0.00 0.00 91 1013.5
20260507224536 12 270 1.6 6.4 0.00 0.00 0.00 91 1013.5
20260507224036 12 270 0.0 8.0 0.00 0.00 0.00 91 1013.5
20260507223535 12 315 1.6 6.4 0.00 0.00 0.00 90 1013.5
20260507223036 12 225 3.2 8.0 0.00 0.00 0.00 90 1013.3
20260507222535 12 0 3.2 8.0 0.00 0.00 0.00 89 1013.3
20260507222036 12 270 3.2 11.3 0.00 0.00 0.00 88 1013.5
20260507221536 12 270 0.0 6.4 0.00 0.00 0.00 88 1013.6
20260507221035 12 270 1.6 8.0 0.00 0.00 0.00 88 1013.6
20260507220536 12 45 1.6 6.4 0.00 0.00 0.00 88 1013.7
20260507220035 12 270 3.2 6.4 0.00 0.00 0.00 88 1013.6
20260507215536 12 225 3.2 8.0 0.00 0.00 0.00 88 1013.6
20260507215035 12 270 3.2 6.4 0.00 0.00 0.00 88 1013.6
20260507214535 12 315 3.2 6.4 0.00 0.00 0.00 88 1013.7
20260507214035 12 225 1.6 8.0 0.00 0.00 0.00 87 1013.6
20260507213535 12 270 3.2 12.9 0.00 0.00 0.00 87 1013.5
20260507213035 12 270 4.8 11.3 0.00 0.00 0.00 86 1013.3
20260507212535 12 270 4.8 8.0 0.00 0.00 0.00 85 1013.3
20260507212035 12 225 3.2 11.3 0.00 0.00 0.00 84 1013.3
20260507211535 12 225 3.2 11.3 0.00 0.00 0.00 83 1013.3
20260507211035 12 225 3.2 6.4 0.00 0.00 0.00 83 1013.4
20260507210535 12 225 1.6 8.0 0.00 0.00 0.00 82 1013.5
20260507210034 12 225 3.2 8.0 0.00 0.00 0.00 82 1013.5
20260507205535 12 315 0.0 9.7 0.00 0.00 0.00 81 1013.3
20260507205035 12 225 3.2 11.3 0.00 0.00 0.00 81 1013.2
20260507204535 12 225 3.2 11.3 0.00 0.00 0.00 81 1013.3
20260507204035 12 270 4.8 9.7 0.00 0.00 0.00 80 1013.3
20260507203535 12 225 3.2 8.0 0.00 0.00 0.00 80 1013.2
20260507203035 12 270 3.2 11.3 0.00 0.00 0.00 80 1013.2
20260507202534 12 270 3.2 8.0 0.00 0.00 0.00 79 1013.1
20260507202035 12 270 3.2 11.3 0.00 0.00 0.00 79 1013.2
20260507201534 12 270 3.2 9.7 0.00 0.00 0.00 79 1013.2
20260507201035 12 248 3.2 8.0 0.00 0.00 0.00 79 1013.3
20260507200535 12 270 3.2 8.0 0.00 0.00 0.00 78 1013.2
20260507200034 12 270 3.2 8.0 0.00 0.00 0.00 78 1013.1
20260507195534 12 270 1.6 8.0 0.00 0.00 0.00 78 1013.2
20260507195034 12 225 4.8 11.3 0.00 0.00 0.00 77 1013.1
20260507194534 13 0 3.2 11.3 0.00 0.00 0.00 77 1013.1
20260507194035 13 270 4.8 11.3 0.00 0.00 0.00 76 1013.0
20260507193534 13 225 8.0 14.5 0.00 0.00 0.00 76 1013.1
20260507193035 13 293 4.8 11.3 0.00 0.00 0.00 76 1013.1
20260507192534 13 225 3.2 12.9 0.00 0.00 0.00 76 1013.3
20260507192034 13 270 3.2 8.0 0.00 0.00 0.00 76 1013.3
20260507191534 13 225 3.2 12.9 0.00 0.00 0.00 77 1013.3
20260507191034 13 270 4.8 12.9 0.00 0.00 0.00 78 1013.3
20260507190533 12 270 6.4 12.9 0.00 0.00 0.00 80 1013.2
20260507190034 12 270 4.8 12.9 0.00 0.00 0.00 81 1013.2
20260507185534 12 270 3.2 9.7 0.00 0.00 0.00 82 1013.2
20260507185033 12 248 3.2 8.0 0.00 0.00 0.00 82 1013.3
20260507184534 12 225 3.2 8.0 0.00 0.00 0.00 83 1013.3
20260507184033 12 270 3.2 9.7 0.00 0.00 0.00 83 1013.2
20260507183534 12 270 4.8 8.0 0.00 0.00 0.00 83 1013.2
20260507183034 12 270 3.2 8.0 0.00 0.00 0.00 82 1013.2
20260507182533 12 248 3.2 8.0 0.00 0.00 0.00 82 1013.4
20260507182034 13 225 3.2 6.4 0.00 0.00 0.00 82 1013.4
20260507181533 13 270 1.6 8.0 0.00 0.00 0.00 82 1013.4
20260507181034 13 225 1.6 6.4 0.00 0.00 0.00 81 1013.4
20260507180533 13 225 3.2 8.0 0.00 0.00 0.00 81 1013.5
20260507180033 13 225 3.2 6.4 0.00 0.00 0.00 81 1013.5
20260507175533 13 225 0.0 4.8 0.00 0.00 0.00 80 1013.5
20260507175033 13 225 0.0 8.0 0.00 0.00 0.00 79 1013.5
20260507174533 13 270 3.2 6.4 0.00 0.00 0.00 79 1013.3
20260507174033 13 270 3.2 8.0 0.00 0.00 0.00 78 1013.3
20260507173532 13 315 3.2 8.0 0.00 0.00 0.00 77 1013.3
20260507173033 13 0 3.2 8.0 0.00 0.00 0.00 77 1013.3
20260507172533 13 270 3.2 9.7 0.00 0.00 0.00 76 1013.3
20260507172033 14 270 3.2 8.0 0.00 0.00 0.00 76 1013.2
20260507171533 14 225 1.6 4.8 0.00 0.00 0.00 76 1013.1
20260507171032 14 180 1.6 4.8 0.00 0.00 0.00 75 1013.0
20260507170533 15 0 1.6 4.8 0.00 0.00 0.00 74 1013.0
20260507170032 15 270 3.2 8.0 0.00 0.00 0.00 73 1013.1
20260507165533 15 270 1.6 8.0 0.00 0.00 0.00 72 1013.0
20260507165033 15 270 3.2 9.7 0.00 0.00 0.00 71 1013.0
20260507164533 15 270 3.2 9.7 0.00 0.00 0.00 70 1012.9
20260507164033 16 270 3.2 8.0 0.00 0.00 0.00 70 1012.9
20260507163532 16 270 1.6 9.7 0.00 0.00 0.00 69 1012.9
20260507163033 16 315 0.0 17.7 0.00 0.00 0.00 68 1012.9
20260507162532 16 225 1.6 9.7 0.00 0.00 0.00 67 1012.9
20260507162033 16 293 4.8 12.9 0.00 0.00 0.00 67 1012.8
20260507161532 17 270 3.2 11.3 0.00 0.00 0.00 66 1012.8
20260507161033 17 315 3.2 9.7 0.00 0.00 0.00 65 1012.7
20260507160532 17 315 3.2 9.7 0.00 0.00 0.00 65 1012.6
20260507160032 17 225 3.2 8.0 0.00 0.00 0.00 64 1012.5
20260507155532 17 248 3.2 11.3 0.00 0.00 0.00 64 1012.4
20260507155032 18 315 4.8 17.7 0.00 0.00 0.00 64 1012.3
20260507154532 18 315 3.2 8.0 0.00 0.00 0.00 65 1012.4
20260507154032 18 270 4.8 12.9 0.00 0.00 0.00 64 1012.3
20260507153532 18 225 1.6 11.3 0.00 0.00 0.00 63 1012.4
20260507153033 18 315 4.8 11.3 0.00 0.00 0.00 63 1012.3
20260507152532 18 270 4.8 16.1 0.00 0.00 0.00 62 1012.3
20260507152032 18 225 6.4 14.5 0.00 0.00 0.00 62 1012.4
20260507151532 19 315 3.2 12.9 0.00 0.00 0.00 60 1012.4
20260507151032 19 315 3.2 12.9 0.00 0.00 0.00 59 1012.4
20260507150532 19 315 8.0 16.1 0.00 0.00 0.00 58 1012.4
20260507150032 20 0 3.2 11.3 0.00 0.00 0.00 58 1012.4
20260507145532 20 270 3.2 16.1 0.00 0.00 0.00 60 1012.4
20260507145031 20 270 8.0 19.3 0.00 0.00 0.00 61 1012.4
20260507144532 20 225 3.2 17.7 0.00 0.00 0.00 61 1012.3
20260507144031 20 270 3.2 12.9 0.00 0.00 0.00 61 1012.2
20260507143531 20 270 8.0 12.9 0.00 0.00 0.00 61 1012.2
20260507143032 20 270 6.4 20.9 0.00 0.00 0.00 61 1012.2
20260507142531 21 225 8.0 14.5 0.00 0.00 0.00 62 1012.2
20260507142032 20 270 4.8 20.9 0.00 0.00 0.00 62 1012.2